Hourly Data Report for July 03, 2022

ALGONQUIN PARK EAST GATE
ONTARIO
Current Station Operator: ECCC - MSC

45°32'00.000" N
78°16'00.000" W
397.00 m
6080192
71581
TNK

Download Data

Hourly Data (July 2022)
Hourly Data Report for July 3, 2022
TIME
LST
Temp Definition
°C
Dew Point Definition
°C
Rel Hum Definition
%
Precip. Amount Definition
mm

Wind Dir Definition
10's deg

Wind Spd Definition
km/h
Visibility Definition
km
Stn Press Definition
kPa
Hmdx Definition


Wind Chill Definition


Weather Definition


00:00 9.1 6.9 87 0.0 9 3   96.77     LegendNANA
01:00 8.6 7.3 92 0.0   0   96.83     LegendNANA
02:00 8.1 7.0 93 0.0   0   96.85     LegendNANA
03:00 7.1 6.3 94 0.0   0   96.94     LegendNANA
04:00 6.4 5.7 96 0.0   0   96.99     LegendNANA
05:00 5.9 5.3 96 0.0   0   97.07     LegendNANA
06:00 7.4 6.8 96 0.0   0   97.14     LegendNANA
07:00 13.5 10.2 80 0.0 27 3   97.18     LegendNANA
08:00 15.9 9.4 65 0.0 27 2   97.21     LegendNANA
09:00 17.4 8.7 57 0.0 27 6   97.23     LegendNANA
10:00 18.8 7.9 49 0.0 26 7   97.24     LegendNANA
11:00 20.7 8.2 45 0.0 30 8   97.23     LegendNANA
12:00 20.5 6.1 39 0.0 27 8   97.21     LegendNANA
13:00 21.7 6.5 37 0.0 30 7   97.17     LegendNANA
14:00 22.2 7.1 38 0.0 29 6   97.17     LegendNANA
15:00 22.7 7.6 38 0.0 27 8   97.15     LegendNANA
16:00 22.5 7.1 37 0.0 30 6   97.13     LegendNANA
17:00 21.4 8.6 44 0.0 27 6   97.15     LegendNANA
18:00 21.2 8.0 43 0.0 28 6   97.15     LegendNANA
19:00 19.1 8.0 49 0.0 29 3   97.20     LegendNANA
20:00 15.9 9.3 65 0.0 0 1   97.21     LegendNANA
21:00 13.4 9.3 76 0.0 15 1   97.26     LegendNANA
22:00 11.3 8.1 81 0.0 12 1   97.30     LegendNANA
23:00 9.8 7.9 88 0.0   0   97.34     LegendNANA

Notes on Data Quality.

Legend

  • E = Estimated
  • M = Missing
  • NA = Not Available*
  • [empty] = Indicates an unobserved value
Date modified: